Weather in Pogranichniy

Russia / Primorsky Krai     44°24′28″N   131°22′44″E
temp.,
°C
wind,
m/s
gust,
m/s
humid.,
%
clouds,
%
prec.,
mm/h
press.,
hPa
HPBL,
m
27 october, wed
wed2701:00+8ssw3992100 2.4 1012481
04:00+9wsw1390100 7.0 1012117
07:00+6w387235 0.0 1014295
10:00+8wnw59620 0.0 1014483
13:00+12nw473842 0.0 10121465
16:00+12wnw5842100 0.0 10111694
19:00+8nw51153100 0.0 1013878
22:00+7w410535 0.0 1013419
28 october, thu
thu2801:00+6nw4105862 0.0 1014660
04:00+4nw497462 0.0 1016555
07:00+5nnw41069100 0.0 10201197
10:00+6nw6965100 0.0 10231046
13:00+9nnw58445 0.0 10231403
16:00+10nnw57391 0.0 10231529
19:00+6nnw22560 0.0 102634
22:00+4wnw22640 0.0 102819
29 october, fri
fri2901:00+3wnw22660 0.0 102917
04:00+2w21650 0.0 102912
07:00+2wnw11640 0.0 102910
10:00+5sw11500 0.0 1029156
13:00+10s22370 0.0 1027573
16:00+12sse23340 0.0 1025721
19:00+7sse11510 0.0 102610
22:00+5wsw11552 0.0 102610
30 october, sat
sat3001:00+4wsw1158100 0.0 102510
04:00+4wsw1158100 0.0 102411
07:00+3w115856 0.0 102411
10:00+7wsw125198 0.0 1024119
13:00+12nw1337100 0.0 1023774
16:00+13ene223596 0.0 1023691
19:00+7nne11555 0.0 102510
22:00+5n22605 0.0 102628
31 october, sun
sun3101:00+4nnw22695 0.0 102830
04:00+2nnw117795 0.0 102821
07:00+2n1275100 0.0 102938
10:00+3nne2343100 0.0 1030397
13:00+6nne333237 0.0 1030891
16:00+7nne34295 0.0 10281024
19:00+2ne224445 0.0 103036
22:000nnw214442 0.0 103114